Wind_Speed
22 22 22 22 23 23 22 23 23 22 22 20 19 19 18 18 17 16 15 15 15 15 16 16 17 19 20 21 22 23 23 23 21 20 18 18 17 17 17 17 18 18 18 19 19 20 21 20 18 17 17 19 19 18 17 16 16 15 15 15 14 13 13 12 11 10 11 11 11
22 22 22 22 22 22 22 22 22 21 20 19 18 17 17 16 15 14 13 13 12 12 12 13 13 14 16 18 19 21 23 23 22 20 19 17 16 16 16 16 17 18 18 18 17 17 18 19 18 16 16 18 19 19 18 17 17 16 16 15 14 13 11 10 10 10 10 10 11
22 21 21 21 21 21 21 21 21 20 19 18 17 17 16 15 14 13 13 12 12 12 12 13 13 14 15 16 18 20 21 22 22 21 19 18 17 16 16 16 17 17 17 15 13 12 13 15 16 15 15 16 18 19 19 18 17 16 16 15 14 13 11 10 10 10 10 11 12
22 21 21 21 21 21 21 21 20 20 19 18 18 17 16 15 14 13 13 12 12 13 13 14 14 15 16 17 18 19 20 21 21 21 20 19 18 17 18 18 18 18 17 14 11 10 11 14 16 16 15 14 16 18 20 19 17 16 15 15 14 13 12 11 11 10 10 11 11
22 21 21 20 20 20 20 20 19 19 19 18 18 17 16 15 14 14 13 13 13 14 14 15 16 16 17 18 18 19 19 20 20 21 21 20 19 18 19 19 19 19 18 15 12 11 11 13 16 17 16 14 14 16 19 18 17 15 14 14 13 13 13 12 11 10 10 10 9
22 21 20 20 19 19 19 18 18 18 18 18 18 17 16 15 15 14 14 14 14 15 15 16 17 17 18 19 19 19 19 19 20 20 21 21 20 19 18 19 20 19 18 15 13 12 12 14 16 17 17 14 12 14 17 18 16 14 13 12 12 12 12 11 10 9 9 8 6
22 21 20 20 19 19 18 18 17 17 17 17 17 16 15 15 14 14 14 15 15 16 17 17 18 19 19 20 20 20 19 19 19 19 20 20 19 18 16 16 16 16 16 15 14 14 14 14 16 17 17 14 12 13 15 16 15 13 12 11 10 9 8 7 7 7 6 5 4
22 21 20 20 19 18 18 17 17 17 16 16 16 15 14 14 14 14 15 15 16 17 18 18 19 20 20 20 20 20 20 19 19 19 19 18 18 16 14 13 13 13 14 15 15 15 15 15 15 16 17 14 12 12 14 14 13 11 9 8 7 6 5 6 6 5 4 4 4
22 21 21 20 19 18 17 15 15 16 15 15 14 14 13 13 13 14 15 16 17 18 18 19 20 20 20 20 20 20 20 20 19 19 18 17 17 16 14 13 13 14 15 16 15 15 14 14 15 16 16 14 12 11 12 12 11 9 7 5 4 4 5 5 5 4 4 5 5
23 22 21 21 19 17 15 14 14 14 14 14 14 13 13 13 13 14 15 16 17 18 19 20 20 20 20 19 19 19 20 20 19 18 17 17 16 15 14 14 14 16 17 16 15 13 13 14 15 15 15 13 12 11 11 11 10 8 6 4 4 5 5 5 4 5 5 6 6
23 22 22 21 19 16 14 14 14 14 14 14 13 13 13 13 14 14 15 17 18 19 20 20 20 19 19 18 18 19 19 20 19 18 17 17 16 15 14 14 15 16 16 15 13 12 13 15 15 15 13 12 11 11 12 12 11 9 7 6 6 6 6 5 5 6 6 6 6
23 22 22 20 17 15 14 14 14 14 14 14 14 14 14 14 14 15 16 17 19 20 21 21 20 18 17 17 18 18 19 19 18 18 17 17 17 16 15 14 15 15 15 13 12 12 14 16 15 14 13 12 11 11 12 12 11 9 8 7 7 7 7 7 7 7 6 6 5
23 22 21 18 16 14 14 14 14 15 15 15 14 14 14 15 15 16 17 18 20 21 22 21 19 18 17 17 17 17 18 19 19 19 19 18 17 16 16 15 15 14 13 12 11 12 14 16 15 13 12 10 10 10 10 10 9 9 9 8 8 8 8 7 7 7 6 5 4
23 22 19 17 15 15 15 15 15 15 15 15 15 15 15 16 16 17 18 19 20 22 22 22 20 18 16 15 15 16 17 18 18 19 19 18 16 15 15 15 15 14 12 10 11 12 14 15 14 12 10 8 9 9 9 9 9 9 9 9 9 8 8 7 6 5 4 4 4
23 21 18 17 16 16 15 15 16 16 16 16 16 16 16 17 17 18 19 20 21 22 22 22 20 18 16 15 14 15 15 16 17 18 18 17 14 14 14 15 14 13 11 10 11 12 12 13 12 10 8 8 9 10 11 11 11 11 10 10 9 8 7 6 5 3 3 3 3
22 20 18 18 17 17 16 16 17 17 17 17 17 17 17 18 19 19 20 21 21 22 22 22 21 19 17 15 15 15 15 15 16 17 17 15 13 13 15 15 14 12 11 10 10 11 11 11 10 9 8 8 10 11 12 12 12 11 11 10 9 8 6 4 3 2 2 2 2
23 21 20 19 18 18 17 17 18 18 18 18 18 18 18 19 20 20 21 21 21 22 22 22 21 20 18 17 16 15 15 15 15 16 16 15 14 14 15 15 13 12 12 11 11 10 10 10 9 9 9 10 11 12 12 12 11 11 10 9 8 6 4 2 1 1 1 1 1
23 22 21 21 20 19 18 18 18 18 18 18 18 19 19 20 21 21 21 21 21 21 22 21 20 19 18 17 16 16 15 15 15 16 16 15 14 15 15 14 13 13 13 12 11 10 9 9 10 11 12 12 13 13 12 11 11 10 9 8 6 5 3 1 0 0 1 1 1
25 24 23 22 21 20 19 19 19 19 19 19 19 19 20 20 21 22 22 22 21 21 21 21 20 18 17 16 16 16 16 15 15 16 16 15 14 15 15 14 13 13 12 11 10 9 9 10 12 13 13 13 13 12 12 11 10 9 8 7 5 3 2 1 1 1 2 2 2
26 25 24 24 22 21 20 20 20 20 19 19 19 20 20 21 21 22 22 22 21 21 20 19 18 17 16 16 16 16 16 15 15 16 16 15 14 14 14 13 12 12 11 9 8 9 10 12 14 14 14 13 12 12 11 10 9 8 7 6 4 3 2 2 2 3 3 3 3
26 26 25 25 24 22 21 21 21 20 20 20 20 20 21 21 21 22 22 22 21 21 20 18 17 17 16 16 17 17 16 16 16 16 16 15 14 14 13 12 12 11 10 9 9 11 13 14 15 14 13 12 11 11 10 9 8 7 6 5 4 3 3 3 4 4 4 4 4
26 26 26 25 24 23 22 22 22 21 21 21 21 21 21 21 22 22 22 22 21 21 20 19 18 17 17 17 17 16 16 17 17 17 17 15 14 13 13 12 12 12 12 12 13 14 15 16 15 13 12 11 11 10 9 8 7 6 5 4 4 4 5 5 5 4 5 5 5
26 27 26 26 25 24 24 23 23 22 22 22 22 22 22 22 22 22 22 22 22 21 21 20 19 18 17 16 16 16 16 17 18 18 17 16 14 13 13 13 14 14 15 15 15 16 15 15 13 12 11 11 10 9 8 7 6 5 5 5 5 6 6 6 5 5 5 5 5
27 27 27 26 26 26 25 24 23 23 23 23 23 23 23 22 22 22 22 22 22 22 22 21 20 19 17 16 16 16 16 18 19 19 18 16 15 15 16 16 17 17 17 17 16 15 14 12 12 11 11 11 10 9 8 7 6 6 6 6 6 7 7 6 6 6 6 6 6
28 28 27 27 27 27 26 25 24 24 24 24 24 24 23 23 23 23 23 23 23 23 23 22 20 19 17 16 16 16 17 17 18 18 17 17 17 18 19 19 19 19 18 17 16 14 12 10 10 10 11 10 9 9 8 8 7 7 7 7 7 7 7 7 7 6 6 6 6
29 28 28 27 27 27 26 25 25 25 25 25 25 25 25 24 24 24 24 23 23 23 23 22 20 18 17 17 17 17 17 17 17 16 17 18 20 21 21 21 21 20 18 17 15 13 11 10 9 9 9 9 8 8 8 9 9 9 9 8 7 7 7 7 7 7 7 7 7
30 29 28 27 27 27 27 26 26 26 26 26 27 26 26 26 25 24 24 24 24 23 23 21 20 18 18 17 17 17 17 17 16 16 17 20 22 23 23 22 21 20 18 16 15 13 12 11 10 9 8 7 7 8 9 10 10 10 9 9 8 8 7 7 7 7 7 7 7
31 30 29 28 28 27 27 27 27 27 28 28 28 28 27 26 25 25 24 24 24 24 23 22 20 19 18 18 18 18 18 17 17 18 20 23 24 25 24 23 21 19 17 16 14 13 12 11 10 9 8 7 8 8 9 10 11 10 10 9 9 8 8 7 7 7 7 8 8
32 31 30 29 28 28 28 28 29 29 29 29 29 29 28 26 25 25 25 25 25 25 24 22 21 19 19 18 18 18 18 18 19 20 23 25 26 26 24 22 21 19 17 15 14 13 12 11 10 9 8 8 9 10 10 10 10 10 9 9 9 8 8 7 7 8 8 9 9
33 32 31 30 30 29 30 30 30 31 31 30 30 29 28 26 26 25 25 26 26 25 24 22 21 20 19 19 19 19 19 20 21 23 26 27 27 25 23 21 19 18 16 15 14 13 12 11 10 9 9 9 9 10 10 10 10 10 9 9 9 8 8 8 9 9 10 10 11
34 33 32 31 31 31 32 32 32 32 32 32 31 30 28 27 26 26 26 26 26 25 23 21 21 20 20 20 20 20 21 22 24 26 28 28 26 24 21 20 18 17 16 15 14 13 12 11 10 10 10 10 10 10 10 10 10 9 9 9 9 9 9 9 10 10 11 11 11
35 34 33 33 33 33 34 34 34 34 33 33 32 31 29 27 27 26 26 26 25 25 23 22 21 21 21 21 22 22 24 25 27 28 28 26 24 22 20 18 17 17 16 15 14 13 11 10 10 10 10 10 10 10 10 10 10 9 9 9 9 9 9 10 10 11 11 11 11
35 35 34 34 34 35 35 36 36 35 35 34 33 31 29 28 27 27 26 26 25 24 23 22 22 22 22 23 24 25 26 28 29 29 27 24 22 20 18 18 17 17 16 15 13 12 11 10 10 10 10 10 10 10 10 9 9 9 9 9 10 10 10 10 11 11 11 11 11
36 36 35 35 35 36 36 37 37 36 35 34 33 32 30 29 28 27 27 26 26 24 23 22 22 22 23 24 25 27 28 29 29 28 26 23 20 19 18 18 18 17 16 14 13 12 11 10 10 11 11 11 10 10 10 9 9 9 9 10 10 10 11 11 11 11 11 11 11
37 37 36 36 36 36 37 37 37 37 36 35 34 32 30 29 28 27 27 27 27 26 24 23 23 23 24 25 27 28 29 30 29 27 25 22 20 19 18 18 17 17 15 14 12 11 11 10 11 11 11 11 10 10 10 10 10 10 10 10 11 11 11 11 11 11 11 11 10
37 37 37 37 36 36 37 38 38 37 36 35 34 32 31 29 28 27 28 28 28 27 26 25 25 25 26 27 28 29 29 29 28 27 25 23 21 19 18 17 17 16 15 14 12 12 11 11 11 11 11 10 10 10 10 10 10 10 10 11 11 12 11 11 11 11 11 10 10
38 38 37 37 36 36 37 38 38 37 36 35 33 32 30 29 28 28 28 29 29 28 27 27 27 27 27 28 29 29 29 28 27 26 25 23 21 19 17 16 16 15 15 14 13 12 12 12 11 11 10 10 10 10 10 10 10 11 11 12 12 12 12 11 11 11 10 10 9
38 37 37 37 36 37 38 38 38 37 35 34 33 31 29 28 28 29 29 29 28 28 28 28 28 28 28 29 29 29 29 27 26 26 25 24 21 18 16 15 15 15 15 14 14 13 13 12 12 11 10 10 10 10 10 10 11 11 12 12 12 12 12 11 11 11 10 10 9
38 38 37 37 37 38 38 38 37 36 35 33 31 30 29 29 29 30 30 29 28 28 28 28 29 29 29 29 29 29 29 28 27 26 25 23 20 17 15 14 14 15 15 15 15 14 14 13 12 11 10 10 9 9 10 10 11 11 12 12 12 12 12 11 11 11 10 10 10
39 38 37 37 37 38 38 38 36 35 33 32 30 30 29 29 30 31 31 29 28 27 27 28 29 29 29 29 29 29 30 30 28 27 25 22 20 17 15 14 14 15 16 16 16 15 14 14 13 12 11 10 10 9 10 10 10 11 11 11 12 12 12 12 11 11 11 11 11
39 38 37 37 37 37 37 37 36 34 32 30 30 29 29 30 31 32 31 30 28 27 27 28 28 29 29 29 29 29 30 30 30 28 25 22 19 17 15 14 14 15 16 17 16 16 15 14 13 13 12 11 10 10 10 10 10 11 11 11 11 11 12 12 12 12 12 13 12
Wind_Direction
186 185 184 183 180 180 181 183 183 183 182 180 177 175 174 176 177 179 182 184 188 192 197 201 204 206 207 207 205 204 204 204 204 201 197 196 201 205 204 200 200 203 208 212 216 219 218 213 211 207 202 196 193 192 194 198 203 207 210 213 216 220 225 231 238 246 255 263 272
187 187 186 183 181 180 180 181 180 179 177 174 171 170 169 169 169 169 168 168 169 172 176 181 186 191 195 197 199 200 201 202 203 201 197 194 194 197 199 199 202 205 209 214 220 222 219 212 207 208 210 207 200 196 196 198 202 207 211 215 219 223 229 236 244 253 263 273 283
187 188 186 183 181 179 179 179 177 175 172 169 167 165 165 165 163 162 159 156 155 156 158 160 164 169 175 180 186 191 195 198 200 199 194 188 186 188 191 194 196 198 202 209 213 211 204 199 198 203 211 215 209 204 200 199 201 206 211 216 221 226 232 239 246 255 267 280 289
186 187 186 183 181 180 178 177 174 170 167 164 163 163 164 163 162 159 156 153 151 151 151 153 156 160 164 169 175 180 185 190 193 194 191 185 184 186 188 190 190 191 194 199 197 192 191 193 196 202 210 218 214 209 204 201 201 205 211 217 223 228 233 239 246 255 269 282 289
185 187 187 185 182 180 178 174 169 165 162 161 161 162 163 163 162 159 156 153 150 150 151 153 155 158 160 163 167 171 175 180 186 189 188 186 187 191 195 198 197 197 197 197 192 192 198 202 203 205 211 218 217 211 205 203 202 205 212 219 226 232 237 241 248 259 272 282 285
183 186 187 186 183 181 178 173 166 161 159 159 160 162 163 162 161 158 154 152 151 152 153 155 156 157 159 160 161 164 168 173 178 183 186 188 191 197 204 210 210 209 206 200 194 198 206 210 208 208 211 217 219 212 205 203 203 207 212 220 230 236 239 243 252 265 273 276 275
183 184 186 187 185 183 179 172 164 160 158 158 160 161 161 160 158 155 153 153 154 155 156 156 156 157 157 158 159 162 165 168 171 176 181 185 190 198 207 215 215 212 205 198 196 202 208 208 207 207 210 215 217 210 203 201 203 207 213 221 229 233 237 246 259 266 267 260 254
182 184 186 187 187 184 179 171 163 159 158 159 159 159 159 157 155 154 154 154 156 157 158 158 157 157 157 158 160 162 163 165 168 172 176 180 185 193 201 207 205 199 193 191 197 205 208 203 201 203 207 212 215 207 199 198 202 208 215 221 225 229 241 255 261 257 246 235 234
181 183 186 188 188 186 179 168 161 158 158 157 157 157 156 155 154 154 155 155 157 159 159 158 157 157 158 160 162 163 164 166 169 171 173 176 181 188 194 197 194 190 188 189 198 206 205 197 196 198 203 209 212 206 198 198 202 209 217 222 230 242 251 254 247 234 222 220 222
181 183 186 188 190 186 177 165 159 157 156 155 155 155 156 155 155 155 155 156 158 159 159 158 158 158 159 161 164 166 168 170 171 172 173 175 180 186 191 194 193 191 190 191 199 204 200 192 192 195 199 205 209 207 203 204 207 212 218 226 240 246 244 231 220 210 209 210 217
184 185 187 189 189 183 172 162 159 157 156 156 156 156 156 157 157 157 156 157 157 157 158 159 160 161 163 165 168 171 173 174 173 173 174 176 180 185 190 192 192 191 191 194 202 202 194 189 190 194 198 202 204 205 205 205 206 209 216 225 230 227 218 207 202 201 203 208 220
186 187 189 190 187 177 166 162 160 158 157 157 158 158 158 159 158 157 156 156 156 156 157 159 162 165 168 171 174 177 179 178 176 176 176 178 181 186 189 189 190 190 193 199 205 199 190 187 190 194 199 199 196 195 195 196 197 201 209 213 210 201 194 192 194 197 203 216 235
187 188 190 189 182 171 165 163 162 160 159 159 160 161 161 160 159 157 156 156 157 157 157 159 163 167 173 178 180 181 181 179 178 178 179 180 183 187 188 186 187 190 195 200 199 192 186 187 190 195 197 193 183 177 177 179 183 191 197 196 191 184 182 185 191 198 212 236 268
188 189 188 183 175 169 166 165 163 161 160 161 162 162 161 160 158 157 157 158 158 158 158 160 164 170 176 182 183 182 180 179 178 179 180 181 184 186 186 183 185 189 192 191 185 181 182 186 190 192 189 177 164 160 162 166 173 179 183 182 178 177 179 184 195 210 237 274 302
188 188 185 178 171 168 167 166 164 162 162 163 163 162 161 159 158 158 158 159 159 160 161 163 166 171 177 182 183 181 179 178 177 179 180 180 183 183 181 179 182 184 181 174 169 170 175 180 182 180 172 160 155 156 159 163 167 171 173 173 173 176 181 189 207 238 277 309 328
187 185 180 175 170 168 168 167 165 163 163 163 161 160 160 159 159 159 160 160 161 162 163 165 168 171 175 179 180 179 179 177 176 176 176 179 181 179 176 176 178 177 170 163 161 163 166 169 169 167 162 158 158 159 161 163 165 167 169 170 173 178 185 200 231 277 314 337 353
185 182 178 173 170 169 168 168 166 164 162 161 160 159 159 160 160 160 161 161 162 162 164 166 169 172 174 176 178 179 179 177 176 174 174 177 180 177 174 174 174 171 165 162 162 164 167 168 168 165 163 161 162 162 163 164 165 167 169 172 176 181 190 212 257 309 342 8 30
184 180 176 173 171 170 170 168 166 164 162 160 159 159 160 161 161 161 162 162 163 164 165 167 169 172 173 175 176 177 178 178 177 175 174 177 178 177 174 174 173 169 167 167 171 178 182 180 172 166 163 162 162 163 163 164 167 170 173 177 180 184 191 205 246 7 66 84 76
183 180 176 174 172 171 170 168 166 163 161 159 159 159 160 161 162 162 162 163 165 166 167 168 169 171 173 174 175 176 177 179 178 176 174 176 177 177 176 175 173 170 169 172 180 188 189 180 169 163 160 161 162 163 165 168 171 176 179 180 180 179 175 158 130 116 111 102 83
183 180 177 174 173 172 170 168 165 163 160 159 158 159 160 161 163 163 164 165 167 168 168 168 169 171 172 173 174 175 177 178 177 173 172 173 174 175 176 176 173 171 171 174 179 180 175 167 160 157 157 159 162 166 169 174 177 180 180 178 171 162 148 135 128 122 111 94 73
184 181 178 176 175 173 169 166 164 162 160 158 158 158 159 161 163 165 166 166 167 168 168 169 169 171 171 172 173 175 175 175 173 170 169 170 171 172 174 174 172 169 167 166 166 163 160 156 154 153 155 160 165 170 174 177 177 176 172 166 157 148 141 135 130 118 100 83 68
184 181 179 177 176 172 168 165 163 161 159 157 157 158 160 162 164 166 167 167 167 168 168 169 170 171 171 172 173 174 174 172 170 168 166 166 166 167 169 169 166 161 156 154 155 155 154 153 152 154 158 163 168 172 173 172 169 164 160 155 151 146 142 134 123 107 91 79 71
184 182 180 179 177 173 168 165 163 161 159 158 158 160 161 162 164 166 167 168 168 168 170 171 171 171 172 172 174 174 172 171 168 166 164 162 161 161 161 159 154 150 148 149 151 153 153 153 154 158 162 167 168 168 165 161 157 155 153 152 149 145 137 126 112 97 87 82 80
184 183 182 181 178 173 168 164 162 161 160 160 160 161 161 162 164 165 167 168 169 170 171 172 172 172 171 172 173 173 172 170 167 164 161 158 156 155 153 149 146 144 145 147 150 152 155 157 160 163 166 166 164 160 157 154 152 152 151 148 144 137 127 114 102 93 89 91 91
185 185 184 182 178 172 167 164 163 162 162 161 161 161 162 162 164 166 167 169 170 171 172 172 171 170 170 170 171 171 170 168 166 163 158 154 152 150 147 144 143 143 145 147 150 153 157 161 165 165 164 162 159 156 154 153 153 150 146 140 133 125 115 106 100 96 96 99 101
187 186 185 181 176 171 167 165 164 163 163 162 162 162 163 164 165 167 168 169 170 171 172 172 170 169 169 169 170 169 168 166 165 161 157 153 150 147 145 144 144 145 148 150 152 155 159 162 163 161 159 156 156 157 157 155 151 146 139 132 123 114 107 104 102 102 104 107 107
188 187 184 180 174 171 168 166 165 165 165 164 164 164 165 166 167 168 169 169 169 170 171 170 169 168 169 169 170 169 167 165 161 158 155 152 149 147 146 146 147 149 150 153 155 158 158 158 157 155 154 155 158 159 157 151 146 140 134 126 118 111 107 106 107 109 111 110 107
189 186 182 178 174 171 169 168 168 168 167 167 166 166 167 168 169 169 169 169 169 170 170 169 168 168 168 169 169 168 166 162 158 155 153 152 150 148 148 149 149 151 153 155 157 157 156 154 153 153 155 158 158 155 151 144 139 135 129 122 116 113 112 113 113 112 109 102 96
190 186 181 177 174 173 172 172 171 171 170 169 168 168 168 168 169 170 170 170 170 170 169 167 167 167 168 168 168 166 163 158 156 154 153 152 150 149 149 150 151 152 153 155 155 155 153 153 153 153 155 156 155 150 144 139 135 130 126 120 117 117 117 117 114 108 100 93 89
190 186 182 178 176 175 175 175 175 173 172 171 171 170 169 169 169 170 170 171 170 169 167 166 166 167 167 167 166 163 159 156 155 154 154 152 151 150 151 151 152 153 154 155 154 153 152 151 150 150 151 152 149 145 141 136 132 127 123 120 120 120 119 115 109 103 96 91 88
190 187 183 180 179 178 178 178 177 176 174 174 173 171 170 169 169 170 170 170 168 166 165 165 166 167 167 167 164 161 157 155 155 155 154 153 152 152 152 153 153 153 154 154 153 151 149 147 146 146 147 147 146 143 139 134 130 126 124 123 123 121 118 113 108 103 99 94 90
190 188 185 183 182 181 180 179 178 178 177 175 174 172 170 168 168 168 168 167 165 165 165 166 167 167 167 165 162 158 156 155 155 155 155 155 154 153 154 155 155 154 153 152 150 148 145 144 144 145 146 146 146 142 138 133 130 128 127 126 124 120 116 112 108 105 102 98 93
191 189 187 185 184 183 181 180 180 179 178 177 175 172 170 167 166 165 165 164 165 166 166 167 168 168 166 163 160 157 156 155 156 156 156 156 156 157 157 158 156 154 152 149 147 145 144 144 146 147 148 148 145 141 136 133 131 131 130 128 124 119 116 112 109 107 104 100 96
191 189 188 187 186 184 183 182 181 180 179 178 175 172 169 166 164 163 163 164 165 166 167 167 168 167 165 162 158 156 155 156 157 158 158 159 160 161 161 159 155 152 149 146 144 144 145 148 150 151 151 149 145 141 136 134 134 134 132 128 123 120 117 115 112 109 105 102 99
191 189 188 187 187 186 185 183 182 181 180 178 175 172 168 166 164 164 164 165 166 166 166 166 166 166 163 159 157 156 156 157 158 160 161 163 164 165 163 159 153 149 147 145 145 147 149 152 154 154 152 149 144 140 138 137 137 135 132 128 124 122 120 117 115 111 109 106 104
191 190 188 188 188 188 187 185 183 182 180 178 174 171 168 166 165 166 166 167 166 166 165 165 165 164 161 158 156 156 158 159 161 163 165 166 167 167 163 157 152 148 146 146 149 150 152 153 155 154 152 148 144 142 140 140 138 136 133 130 127 125 123 120 117 115 113 112 110
192 191 190 189 188 188 187 185 184 182 179 177 173 170 168 167 167 168 168 168 167 166 165 165 164 163 161 158 157 158 160 163 165 166 167 168 168 167 163 158 152 149 149 150 152 153 153 154 154 153 151 149 145 144 143 142 140 138 136 133 131 129 127 124 122 120 118 117 115
193 192 191 190 188 187 186 185 183 180 178 175 172 170 169 169 169 169 169 169 168 167 166 165 164 162 161 159 158 159 162 165 168 169 169 168 167 166 164 160 156 153 153 154 154 154 154 154 153 152 151 149 146 145 145 144 142 140 139 138 136 134 131 128 126 124 121 119 117
193 193 192 190 188 186 184 183 181 179 176 174 172 171 171 172 171 170 170 170 170 169 167 165 163 162 161 159 159 160 164 168 170 171 170 168 166 166 167 166 162 158 156 156 155 155 155 155 153 151 149 149 147 146 145 144 143 142 142 142 140 137 133 130 127 125 122 120 119
192 192 192 191 188 185 183 181 179 178 176 174 173 173 174 173 172 171 171 171 172 171 169 166 164 162 161 161 161 163 166 169 171 171 170 168 165 166 168 170 166 161 158 156 156 156 156 155 152 149 149 149 148 147 146 145 144 143 143 143 142 138 134 131 129 127 126 125 124
191 191 191 190 188 185 182 180 178 177 176 175 175 175 175 175 174 173 172 172 173 173 171 167 165 163 162 162 163 165 168 170 171 171 170 168 165 165 167 170 168 163 159 157 157 157 156 154 150 148 148 149 149 147 146 146 145 144 143 141 140 138 136 135 134 134 132 130 128
Height
1460 1461 1463 1464 1465 1467 1468 1470 1472 1474 1475 1477 1479 1481 1482 1484 1485 1486 1488 1489 1490 1491 1492 1493 1494 1494 1496 1497 1498 1499 1501 1502 1503 1504 1505 1506 1508 1508 1509 1510 1511 1512 1513 1513 1514 1514 1514 1515 1516 1517 1518 1519 1519 1520 1520 1521 1522 1522 1523 1523 1524 1524 1524 1525 1525 1526 1526 1526 1526
1460 1461 1462 1464 1465 1467 1468 1470 1472 1474 1475 1477 1479 1481 1482 1484 1485 1486 1487 1488 1489 1490 1491 1492 1493 1494 1495 1496 1497 1499 1500 1501 1503 1504 1505 1506 1507 1508 1509 1509 1510 1511 1512 1512 1513 1513 1514 1514 1515 1516 1517 1518 1519 1519 1519 1520 1521 1521 1522 1522 1523 1524 1524 1524 1525 1525 1525 1526 1526
1459 1461 1462 1464 1465 1466 1468 1469 1471 1473 1475 1477 1479 1480 1482 1483 1484 1485 1487 1488 1489 1489 1490 1491 1492 1493 1494 1495 1496 1498 1499 1500 1502 1503 1504 1505 1507 1507 1508 1509 1509 1510 1511 1512 1512 1512 1513 1514 1515 1516 1517 1517 1518 1518 1519 1519 1520 1520 1521 1522 1523 1523 1524 1524 1524 1525 1525 1525 1525
1459 1460 1462 1463 1464 1466 1468 1469 1471 1473 1475 1477 1478 1480 1481 1482 1484 1485 1486 1487 1488 1489 1489 1490 1491 1492 1493 1494 1495 1497 1498 1499 1501 1502 1504 1505 1506 1507 1507 1508 1509 1509 1510 1511 1511 1512 1513 1513 1514 1515 1516 1516 1517 1518 1518 1519 1519 1520 1521 1522 1522 1523 1523 1524 1524 1524 1524 1524 1524
1459 1460 1462 1463 1464 1466 1468 1469 1471 1473 1475 1476 1478 1479 1480 1482 1483 1484 1485 1486 1487 1488 1489 1490 1491 1492 1493 1494 1495 1496 1497 1499 1500 1501 1503 1504 1505 1506 1506 1507 1508 1509 1509 1510 1511 1511 1512 1513 1514 1514 1515 1516 1516 1517 1518 1518 1519 1520 1520 1521 1522 1522 1523 1523 1524 1524 1524 1524 1524
1459 1460 1461 1463 1464 1466 1468 1469 1471 1473 1475 1476 1477 1479 1480 1481 1482 1484 1484 1486 1487 1488 1489 1489 1490 1491 1492 1493 1494 1496 1497 1498 1499 1501 1502 1503 1504 1505 1505 1506 1507 1508 1509 1509 1510 1511 1512 1512 1513 1514 1514 1515 1516 1516 1517 1518 1519 1519 1520 1521 1521 1522 1523 1523 1523 1524 1524 1524 1524
1458 1460 1461 1463 1464 1466 1468 1469 1471 1473 1474 1476 1477 1479 1480 1481 1482 1483 1484 1485 1486 1487 1488 1489 1490 1491 1492 1493 1494 1495 1496 1498 1499 1500 1501 1502 1503 1504 1504 1505 1506 1507 1508 1509 1510 1510 1511 1512 1512 1513 1514 1515 1515 1516 1517 1518 1519 1519 1520 1520 1521 1522 1522 1523 1523 1523 1523 1523 1523
1458 1460 1461 1463 1464 1466 1468 1469 1471 1473 1474 1476 1477 1479 1480 1481 1482 1483 1484 1485 1486 1487 1488 1489 1490 1491 1492 1493 1494 1495 1496 1497 1498 1499 1500 1501 1502 1503 1504 1504 1505 1506 1507 1508 1509 1510 1511 1511 1512 1513 1514 1514 1515 1515 1516 1518 1518 1519 1520 1520 1521 1521 1522 1522 1522 1523 1523 1523 1523
1458 1459 1461 1463 1464 1466 1468 1469 1471 1473 1474 1476 1477 1478 1479 1480 1482 1483 1484 1485 1486 1487 1488 1489 1490 1491 1492 1493 1494 1495 1496 1497 1498 1499 1500 1501 1502 1503 1503 1504 1505 1506 1507 1508 1509 1509 1510 1511 1511 1512 1513 1514 1514 1515 1516 1517 1518 1519 1519 1520 1520 1521 1521 1522 1522 1522 1522 1522 1522
1457 1459 1461 1462 1464 1466 1468 1469 1471 1473 1474 1475 1477 1478 1479 1480 1481 1482 1484 1484 1486 1487 1488 1489 1490 1491 1492 1493 1494 1495 1496 1496 1497 1498 1499 1500 1501 1502 1503 1504 1504 1505 1506 1507 1508 1509 1510 1510 1511 1512 1513 1514 1514 1515 1516 1517 1518 1519 1519 1519 1520 1520 1521 1521 1521 1522 1522 1522 1522
1456 1458 1460 1462 1464 1465 1468 1469 1471 1472 1474 1475 1476 1478 1479 1480 1481 1482 1483 1484 1485 1487 1488 1489 1490 1491 1492 1493 1494 1494 1495 1496 1497 1498 1499 1500 1501 1502 1503 1504 1504 1505 1506 1507 1508 1509 1509 1510 1511 1512 1512 1513 1514 1515 1516 1517 1517 1518 1519 1519 1520 1520 1520 1521 1521 1521 1521 1522 1522
1456 1458 1459 1461 1464 1465 1467 1469 1470 1472 1473 1475 1476 1477 1478 1479 1481 1482 1483 1484 1485 1486 1488 1489 1490 1491 1492 1493 1493 1494 1495 1496 1497 1498 1499 1499 1500 1501 1502 1503 1504 1505 1506 1507 1508 1508 1509 1510 1510 1511 1512 1513 1514 1514 1515 1516 1517 1518 1519 1519 1519 1519 1520 1520 1520 1521 1521 1521 1522
1455 1457 1459 1461 1463 1465 1467 1469 1470 1471 1473 1474 1476 1477 1478 1479 1480 1482 1483 1484 1485 1486 1487 1489 1490 1491 1492 1492 1493 1494 1494 1495 1496 1497 1498 1499 1500 1501 1502 1503 1504 1505 1506 1507 1507 1508 1509 1509 1510 1511 1512 1513 1513 1514 1515 1516 1517 1518 1518 1519 1519 1519 1519 1520 1520 1520 1521 1521 1521
1454 1456 1459 1461 1463 1465 1467 1468 1470 1471 1473 1474 1475 1477 1478 1479 1480 1481 1483 1484 1485 1486 1487 1488 1489 1490 1491 1492 1492 1493 1494 1495 1496 1497 1498 1499 1500 1501 1502 1503 1504 1505 1506 1506 1507 1508 1509 1509 1511 1512 1512 1513 1513 1514 1515 1516 1516 1517 1518 1518 1518 1519 1519 1520 1520 1520 1521 1521 1521
1454 1456 1458 1460 1463 1464 1466 1468 1469 1471 1472 1474 1475 1476 1477 1479 1480 1481 1482 1484 1484 1486 1487 1488 1489 1490 1491 1491 1492 1493 1494 1494 1495 1496 1498 1499 1500 1501 1502 1503 1504 1505 1505 1506 1507 1508 1509 1510 1511 1512 1512 1513 1513 1514 1515 1515 1516 1517 1517 1518 1518 1519 1519 1520 1520 1520 1520 1520 1520
1453 1455 1458 1460 1462 1464 1465 1467 1469 1470 1472 1473 1474 1476 1477 1478 1479 1481 1482 1483 1484 1485 1486 1487 1488 1489 1490 1491 1492 1493 1493 1494 1495 1496 1498 1499 1500 1501 1501 1503 1504 1505 1505 1506 1507 1508 1509 1510 1511 1511 1512 1513 1513 1514 1515 1515 1516 1516 1517 1518 1518 1519 1519 1519 1520 1520 1520 1520 1520
1452 1454 1457 1459 1461 1463 1465 1466 1468 1470 1471 1473 1474 1475 1477 1478 1479 1480 1481 1483 1484 1485 1486 1487 1488 1489 1489 1491 1492 1492 1493 1494 1495 1496 1498 1499 1500 1500 1501 1503 1504 1505 1506 1506 1507 1508 1509 1510 1511 1512 1512 1513 1514 1514 1515 1515 1516 1516 1517 1518 1518 1519 1519 1519 1519 1520 1520 1520 1520
1451 1454 1456 1458 1460 1462 1464 1466 1468 1469 1471 1472 1474 1475 1476 1477 1479 1480 1481 1482 1483 1484 1485 1486 1487 1488 1489 1490 1491 1492 1493 1494 1495 1496 1497 1499 1499 1500 1502 1503 1504 1505 1506 1507 1508 1509 1509 1510 1511 1511 1512 1513 1514 1514 1515 1515 1516 1517 1517 1518 1518 1519 1519 1519 1519 1519 1519 1519 1519
1450 1453 1455 1457 1459 1461 1463 1465 1467 1469 1470 1472 1473 1474 1476 1477 1478 1479 1481 1482 1483 1484 1485 1486 1487 1488 1489 1490 1491 1492 1493 1494 1495 1496 1497 1499 1499 1500 1502 1503 1504 1505 1506 1507 1508 1509 1509 1510 1511 1511 1512 1513 1514 1514 1515 1515 1516 1517 1517 1518 1518 1519 1519 1519 1519 1519 1519 1519 1519
1450 1452 1454 1456 1459 1460 1463 1465 1466 1468 1469 1471 1473 1474 1475 1477 1478 1479 1480 1481 1483 1484 1485 1486 1487 1488 1489 1490 1491 1492 1493 1494 1495 1496 1497 1499 1499 1501 1502 1503 1504 1505 1506 1507 1508 1509 1509 1510 1511 1512 1512 1513 1514 1514 1515 1516 1516 1517 1518 1518 1518 1518 1519 1519 1519 1519 1519 1519 1519
1450 1452 1454 1456 1458 1460 1462 1464 1466 1468 1469 1470 1472 1474 1475 1476 1478 1479 1480 1481 1482 1483 1484 1486 1487 1488 1489 1490 1491 1492 1493 1494 1495 1496 1497 1498 1499 1501 1502 1503 1504 1505 1506 1507 1508 1509 1509 1510 1511 1512 1513 1514 1514 1515 1515 1516 1517 1517 1518 1518 1518 1518 1518 1519 1519 1519 1519 1518 1518
1449 1452 1454 1455 1457 1459 1462 1464 1465 1467 1469 1470 1472 1473 1474 1475 1477 1478 1479 1481 1482 1483 1484 1485 1487 1488 1489 1489 1491 1492 1493 1494 1495 1496 1497 1498 1499 1501 1502 1503 1504 1505 1506 1507 1508 1509 1510 1511 1511 1512 1513 1514 1514 1515 1516 1516 1517 1517 1517 1518 1518 1518 1518 1518 1518 1518 1518 1518 1518
1449 1451 1453 1455 1457 1459 1461 1463 1465 1466 1468 1469 1471 1472 1474 1475 1476 1478 1479 1480 1482 1483 1484 1485 1486 1488 1489 1489 1490 1491 1492 1493 1494 1496 1497 1498 1499 1501 1502 1503 1504 1505 1506 1507 1508 1509 1510 1511 1512 1513 1513 1514 1515 1515 1516 1516 1517 1517 1517 1517 1518 1518 1518 1518 1518 1518 1518 1518 1518
1449 1451 1453 1455 1457 1459 1460 1462 1464 1466 1467 1469 1470 1472 1473 1474 1476 1477 1479 1480 1481 1483 1484 1485 1486 1487 1489 1490 1491 1492 1493 1494 1494 1496 1497 1498 1499 1501 1502 1503 1504 1505 1506 1508 1509 1510 1511 1511 1512 1513 1514 1514 1515 1515 1516 1516 1517 1517 1517 1518 1518 1518 1518 1518 1518 1518 1518 1518 1519
1449 1450 1452 1454 1456 1458 1460 1462 1463 1465 1466 1468 1469 1471 1472 1474 1475 1477 1478 1479 1481 1482 1483 1485 1486 1487 1489 1490 1491 1492 1493 1494 1495 1496 1497 1498 1499 1500 1502 1503 1504 1505 1507 1508 1509 1511 1512 1512 1513 1513 1514 1514 1515 1515 1516 1516 1517 1517 1517 1518 1518 1518 1518 1517 1518 1518 1518 1518 1519
1448 1450 1452 1454 1455 1457 1459 1461 1463 1464 1466 1467 1469 1470 1472 1473 1474 1476 1477 1479 1480 1482 1483 1484 1486 1487 1488 1489 1491 1492 1493 1494 1496 1497 1498 1499 1499 1500 1502 1503 1504 1506 1507 1509 1510 1511 1512 1513 1514 1514 1514 1515 1515 1516 1516 1516 1517 1517 1517 1518 1518 1518 1517 1517 1518 1518 1518 1519 1519
1448 1449 1451 1453 1455 1457 1459 1460 1462 1464 1465 1467 1468 1469 1471 1472 1474 1475 1476 1478 1479 1481 1483 1484 1486 1487 1488 1489 1491 1492 1493 1494 1496 1497 1498 1499 1499 1501 1502 1503 1504 1506 1507 1509 1510 1511 1512 1513 1514 1514 1515 1515 1516 1516 1516 1516 1516 1517 1517 1517 1517 1517 1518 1518 1518 1518 1519 1519 1519
1447 1449 1451 1453 1454 1456 1458 1460 1462 1463 1464 1466 1467 1469 1470 1471 1473 1474 1476 1477 1479 1480 1482 1484 1485 1487 1488 1489 1491 1492 1493 1494 1496 1497 1498 1499 1500 1501 1502 1503 1504 1506 1507 1509 1509 1511 1512 1513 1514 1514 1515 1515 1516 1516 1516 1516 1516 1516 1517 1517 1517 1517 1518 1518 1518 1519 1519 1519 1519
1447 1449 1450 1452 1454 1456 1458 1459 1461 1463 1464 1465 1467 1468 1469 1470 1472 1474 1475 1477 1478 1479 1481 1483 1485 1486 1488 1489 1490 1492 1493 1494 1495 1497 1498 1499 1500 1501 1503 1504 1505 1506 1507 1509 1510 1511 1512 1513 1514 1514 1515 1515 1516 1516 1516 1516 1516 1516 1517 1517 1517 1518 1518 1518 1519 1519 1519 1519 1519
1447 1448 1449 1451 1453 1455 1457 1459 1461 1462 1464 1465 1466 1467 1469 1470 1471 1473 1474 1476 1478 1479 1481 1483 1484 1486 1488 1489 1490 1492 1493 1494 1496 1497 1498 1499 1501 1502 1503 1504 1505 1506 1507 1509 1510 1511 1512 1513 1514 1514 1515 1515 1515 1516 1516 1516 1516 1516 1516 1517 1517 1518 1518 1518 1519 1519 1519 1519 1519
1446 1448 1449 1451 1453 1455 1457 1459 1460 1462 1463 1464 1466 1467 1468 1469 1471 1473 1474 1476 1477 1479 1481 1483 1484 1486 1488 1489 1490 1491 1493 1494 1496 1497 1498 1499 1501 1502 1503 1504 1505 1506 1508 1509 1510 1511 1512 1513 1514 1514 1515 1515 1515 1516 1516 1516 1516 1516 1516 1517 1517 1518 1518 1518 1519 1519 1519 1519 1519
1446 1447 1449 1450 1453 1454 1456 1458 1460 1461 1463 1464 1465 1467 1468 1469 1470 1472 1474 1475 1477 1479 1481 1483 1484 1486 1487 1489 1490 1491 1493 1494 1495 1497 1499 1500 1501 1502 1504 1505 1506 1507 1508 1509 1510 1511 1512 1513 1513 1514 1514 1515 1515 1516 1516 1516 1516 1516 1517 1517 1518 1518 1518 1518 1519 1519 1519 1519 1519
1445 1447 1448 1450 1452 1454 1456 1457 1459 1461 1462 1464 1465 1466 1468 1469 1470 1472 1474 1475 1477 1479 1480 1482 1484 1485 1487 1488 1490 1491 1493 1494 1496 1497 1499 1500 1501 1503 1504 1505 1506 1507 1508 1509 1510 1511 1512 1513 1513 1514 1514 1515 1515 1515 1516 1516 1516 1516 1517 1517 1518 1518 1518 1519 1519 1519 1519 1519 1520
1444 1446 1448 1449 1451 1453 1455 1457 1459 1460 1462 1464 1465 1466 1467 1468 1469 1471 1473 1475 1477 1479 1480 1482 1484 1485 1487 1489 1490 1491 1493 1494 1496 1497 1499 1500 1502 1503 1504 1505 1506 1507 1508 1509 1510 1511 1512 1513 1514 1514 1515 1515 1515 1515 1515 1516 1516 1517 1517 1517 1518 1518 1518 1519 1519 1519 1519 1519 1520
1444 1445 1447 1449 1451 1453 1455 1457 1458 1460 1462 1463 1465 1466 1467 1468 1469 1471 1473 1474 1476 1478 1480 1482 1484 1485 1487 1489 1490 1491 1493 1494 1496 1497 1499 1500 1502 1503 1504 1505 1506 1507 1508 1509 1510 1511 1512 1513 1514 1514 1515 1515 1515 1515 1515 1516 1516 1517 1517 1517 1518 1518 1518 1519 1519 1519 1519 1520 1520
1443 1445 1446 1448 1450 1453 1455 1457 1458 1460 1461 1463 1464 1465 1467 1468 1469 1471 1473 1474 1476 1478 1479 1481 1483 1485 1487 1489 1490 1492 1493 1494 1495 1497 1499 1500 1502 1503 1504 1505 1506 1507 1508 1509 1510 1511 1512 1513 1514 1514 1515 1515 1515 1515 1515 1516 1516 1517 1517 1518 1518 1518 1519 1519 1519 1519 1520 1520 1520
1443 1444 1446 1448 1450 1452 1454 1456 1458 1459 1461 1463 1464 1465 1466 1467 1469 1471 1473 1474 1476 1477 1479 1480 1482 1484 1486 1488 1490 1491 1493 1494 1496 1497 1499 1500 1502 1503 1504 1505 1506 1507 1508 1509 1511 1512 1513 1513 1514 1514 1515 1515 1515 1515 1516 1516 1516 1517 1517 1518 1518 1518 1519 1519 1519 1519 1520 1520 1521
1442 1444 1446 1448 1449 1452 1454 1456 1458 1459 1461 1462 1464 1465 1466 1467 1469 1471 1473 1474 1476 1477 1479 1480 1482 1484 1486 1488 1489 1491 1493 1495 1496 1497 1499 1501 1502 1503 1504 1505 1506 1507 1508 1510 1511 1512 1513 1514 1514 1514 1515 1515 1515 1515 1516 1516 1516 1517 1517 1518 1518 1518 1519 1519 1519 1520 1520 1520 1521
1442 1444 1445 1447 1449 1451 1454 1456 1458 1459 1461 1462 1463 1465 1466 1468 1469 1471 1473 1475 1476 1477 1479 1480 1482 1484 1486 1488 1489 1491 1493 1495 1497 1498 1499 1501 1502 1504 1504 1505 1506 1507 1509 1510 1511 1512 1513 1514 1514 1514 1515 1515 1516 1516 1516 1516 1517 1517 1517 1518 1518 1519 1519 1519 1519 1520 1520 1520 1521
1441 1444 1445 1448 1449 1451 1454 1455 1458 1459 1460 1462 1463 1464 1466 1468 1469 1471 1473 1474 1476 1478 1479 1480 1482 1484 1485 1487 1489 1491 1493 1494 1496 1498 1500 1501 1502 1504 1504 1505 1506 1507 1509 1510 1511 1512 1513 1514 1514 1514 1515 1515 1516 1516 1517 1517 1517 1517 1518 1518 1518 1519 1519 1519 1519 1520 1520 1520 1521
1441 1444 1446 1448 1449 1451 1454 1455 1457 1459 1460 1462 1463 1464 1466 1467 1469 1470 1472 1474 1476 1478 1479 1481 1482 1484 1485 1487 1489 1491 1492 1494 1496 1498 1499 1501 1502 1503 1504 1505 1507 1508 1509 1510 1511 1512 1513 1514 1514 1515 1515 1516 1516 1517 1517 1517 1517 1517 1518 1518 1518 1518 1519 1519 1519 1520 1520 1521 1521